Tracking 27079 objects as of 23-Mar-2023
HD Live streaming from Space Station
objects crossing your sky now

ARIANE 2 DEB

Track ARIANE 2 DEB now!
10-day predictions


NORAD ID: 33584
Int'l Code: 1989-027E
Perigee: 435.7 km
Apogee: 21,813.5 km
Inclination: 5.8 °
Period: 383.8 minutes
Semi major axis: 17495 km
RCS: 0.3666 m2 (medium)
Launch date: April 2, 1989
Source: France (FR)
Launch site: FRENCH GUIANA (FRGUI)

Note: This is SATELLITE DEBRIS
Your satellite tracking list
Your tracking list is empty




NASA's NSSDC Master Catalog

Two Line Element Set (TLE):
1 33584U 89027E   23079.93331188  .00001179  00000-0  18836-2 0  9992
2 33584   5.8445 220.1707 6109476  21.1422 355.7839  3.75154266121817
Source of the keplerian elements: AFSPC